#timestamp,LO_Frequency,Hit,StdDev 
1577862015.4,286046994.4,N
1577862035.2,286046989.4,N
1577862055.1,286046991.5,N
1577862056.0,286046991.5,N
1577862075.8,286046985.8,Y
1577862095.7,286046996.5,P
1577862115.5,286046996.4,N
1577862135.3,286046994.3,P
1577862155.2,286046999.2,N
1577862175.9,286046998.9,N
1577862195.7,286046996.6,N
1577862215.6,286046991.7,Y
1577862235.4,286046995.3,P
1577862255.3,286047000.1,N
1577862275.1,286047001.1,N
1577862276.0,286047001.1,N
1577862295.8,286047004.4,N
1577862315.7,286047006.0,N
1577862335.5,286046998.7,N
1577862355.3,286046997.0,N
1577862375.2,286046999.8,N
1577862395.0,286046997.9,N
1577862395.9,286046997.9,N
1577862415.8,286046997.3,N
1577862435.6,286046997.3,N
1577862455.4,286046998.2,N
1577862475.3,286046998.4,N
1577862495.1,286046996.7,N
1577862515.8,286046993.3,N
1577862535.7,286046997.3,N
1577862555.5,286046995.4,N
1577862575.3,286046995.6,N
1577862595.2,286046996.4,N
1577862615.0,286046999.0,N
1577862615.9,286046999.0,N
1577862635.8,286046991.8,N
1577862655.6,286046989.3,Y
1577862675.4,286046991.7,P
1577862695.3,286046994.3,N
1577862715.1,286046989.2,P
1577862735.9,286046995.7,N
1577862755.7,286046993.9,N
1577862775.5,286046996.6,N
1577862795.4,286046997.1,N
1577862815.2,286046993.7,N
1577862835.0,286046995.9,N
1577862835.9,286046995.9,N
1577862855.8,286046999.1,N
1577862875.6,286047004.4,N
1577862895.5,286046998.2,N
1577862915.3,286046994.4,N
1577862935.1,286046990.5,N
1577862955.9,286046988.9,Y
1577862975.7,286046994.1,P
1577862995.5,286046996.0,P
1577863015.4,286046999.1,N
1577863035.2,286046991.7,Y
1577863055.1,286046997.5,P
1577863056.0,286046997.5,P
1577863075.8,286046999.6,N
1577863095.6,286046999.8,N
1577863115.5,286046997.5,N
1577863135.3,286046994.5,Y
1577863155.2,286046998.2,P
1577863175.9,286046999.2,P
1577863195.8,286047000.6,N
1577863215.6,286046998.5,N
1577863235.4,286047001.8,N
1577863255.3,286047005.0,Y
1577863275.1,286047007.6,P
1577863295.8,286047006.5,N
1577863315.7,286047006.2,N
1577863335.5,286047007.7,N
1577863355.4,286046999.8,N
1577863375.2,286047002.8,N
1577863395.0,286047000.6,N
1577863395.9,286047000.6,N
1577863415.8,286047000.3,N
1577863435.6,286047004.5,N
1577863455.4,286047002.5,N
1577863475.3,286047008.2,N
1577863495.1,286047006.7,N
1577863515.9,286047008.5,N
1577863535.7,286047002.1,N
1577863555.5,286046999.7,N
1577863575.4,286046999.1,N
1577863595.2,286046995.0,N
1577863615.0,286047003.2,N
1577863615.9,286047003.2,N
1577863635.8,286047006.0,N
1577863655.6,286047004.6,N
1577863675.5,286047001.4,N
1577863695.3,286047004.8,N
1577863715.1,286047009.6,N
1577863735.9,286047006.4,N
1577863755.7,286047011.5,Y
1577863775.5,286047010.1,P
1577863795.4,286047015.7,P
1577863815.2,286047018.7,P
1577863835.1,286047013.8,N
1577863836.0,286047013.8,N
1577863855.8,286047016.3,Y
1577863875.6,286047004.0,P
1577863895.5,286047004.1,N
1577863915.3,286047000.0,N
1577863935.1,286047001.7,N
1577863955.9,286046997.4,N
1577863975.7,286047001.8,N
1577863995.6,286046995.7,N
1577864015.4,286046989.8,N
1577864035.2,286046987.5,N
1577864055.1,286046998.0,N
1577864056.0,286046998.0,N
1577864075.8,286047011.9,N
1577864095.7,286046985.7,N
1577864115.5,286046990.0,N
1577864135.3,286046985.8,N
1577864155.2,286046982.0,N
1577864175.9,286046984.9,N
1577864195.7,286046985.7,N
1577864215.6,286046985.7,N
1577864235.4,286046981.2,N
1577864255.3,286046980.9,N
1577864275.1,286046985.8,N
1577864276.0,286046985.8,N
1577864295.8,286046981.0,N
1577864315.7,286046984.2,N
1577864335.5,286046980.8,N
1577864355.3,286046977.5,N
1577864375.2,286046981.1,N
1577864395.0,286046982.8,N
1577864395.9,286046982.8,N
1577864415.8,286046980.9,N
1577864435.6,286046987.7,N
1577864455.4,286046989.4,N
1577864475.3,286046988.3,N
1577864495.1,286046990.0,N
1577864545.9,286046992.8,E
1577864555.8,286046994.0,N
1577864575.6,286046999.7,P
1577864595.5,286046998.6,N
1577864615.3,286047001.9,N
1577864635.1,286047001.2,N
1577864655.9,286046998.0,N
1577864675.7,286047005.1,N
1577864695.6,286046999.2,N
1577864715.4,286047000.0,N
1577864735.2,286046998.5,N
1577864755.1,286047004.1,N
1577864756.0,286047004.1,N
1577864775.8,286047005.9,N
1577864795.6,286047002.7,N
1577864815.5,286046995.0,N
1577864835.3,286046996.7,N
1577864855.2,286047002.5,N
1577864875.9,286046999.5,N
1577864895.7,286046992.8,N
1577864915.6,286046995.5,N
1577864935.4,286046999.0,N
1577864955.2,286046993.7,N
1577864975.1,286046992.3,N
1577864976.0,286046992.3,N
1577864995.8,286046993.6,N
1577865015.7,286046989.2,N
1577865035.5,286046996.1,N
1577865055.3,286046999.9,N
1577865075.2,286047001.4,N
1577865095.0,286046997.1,N
1577865095.9,286046997.1,N
1577865115.8,286046997.8,N
1577865135.6,286046992.0,N
1577865155.4,286046996.3,N
1577865175.3,286046992.8,N
1577865195.1,286046989.8,N
1577865215.8,286046988.6,N
1577865235.7,286046985.4,Y
1577865255.5,286046988.3,P
1577865275.4,286046991.1,N
1577865295.2,286046989.5,N
1577865315.0,286046990.3,N
1577865315.9,286046990.3,Y
1577865335.8,286046996.5,P
1577865355.6,286047003.5,N
1577865375.5,286047002.2,N
1577865395.3,286047003.2,N
1577865415.1,286047005.9,N
1577865435.9,286047002.8,N
1577865455.7,286047001.8,N
1577865475.5,286047001.4,N
1577865495.4,286047001.6,N
1577865515.2,286047004.4,N
1577865535.1,286047004.0,N
1577865536.0,286047004.0,N
1577865555.8,286047002.5,N
1577865575.6,286047004.1,N
1577865595.5,286047005.0,N
